Regional Weather Roundup
Issued by NWS

Home | Current Version | Previous Version | Text Only | Print | Product List | Glossary Off
Versions: 1 2 3 4 5 6 7 8 9 10 11 12 13 14 15 16 17 18 19 20 21 22 23 24 25 26 27 28 29 30 31 32 33 34 35 36 37 38 39 40 41 42 43 44 45 46 47 48 49 50

000
ASUS45 KABQ 042310
RWRNM
NEW MEXICO REGIONAL WEATHER ROUNDUP
NATIONAL WEATHER SERVICE ALBUQUERQUE NM
500 PM MDT SAT JUL 04 2015

NOTE: "FAIR" MEANS FEW OR NO CLOUDS BELOW 12,000 FEET AGL WITH NO
       SIGNIFICANT WEATHER OR OBSTRUCTIONS TO VISION.

      THIS PRODUCT IS RELEASED AS TWO VERSIONS.  ONE VERSION NEAR
      THE TOP OF THE HOUR CONTAINING PRELIMINARY DATA FROM ALBUQUERQUE
      AND OTHER STATIONS.  A FINAL VERSION WITH ADDITIONAL DATA IS
      ISSUED ABOUT 10 MINUTES AFTER THE HOUR.

NMZ501-503-504-510>518-050000-
NORTHWEST PLATEAU/NORTHCENTRAL MOUNTAINS

CITY           SKY/WX    TMP DP  RH WIND       PRES   REMARKS
FARMINGTON     SUNNY     88  46  23 W7        30.00S
LOS ALAMOS     CLOUDY    75  50  40 SW6       30.19F
SANTA FE       PTSUNNY   80  54  40 SE13      30.11F
TAOS           CLOUDY    81  45  28 S10       30.17S
ANGEL FIRE     HVY RAIN  56  51  84 NW3       30.33S

$$
NMZ402-403-502-505>509-050000-
WESTCENTRAL MOUNTAINS/SOUTHWEST MOUNTAINS

CITY           SKY/WX    TMP DP  RH WIND       PRES   REMARKS
GALLUP         CLOUDY    71  51  49 SE10G20   30.19F
GRANTS         LGT RAIN  65  56  72 SE7       30.21R
SILVER CITY    LGT RAIN  77  55  47 SW3       30.07F

$$
NMZ407-409-411-412-050000-
SOUTHERN DESERTS

CITY           SKY/WX    TMP DP  RH WIND       PRES   REMARKS
LORDSBURG      FAIR      90  54  29 W9        29.97F
DEMING         MOSUNNY   90  54  29 W6        29.96F
LAS CRUCES     PTSUNNY   84  58  41 W14       29.99R
HOLLOMAN AFB   MOSUNNY   92  54  26 S7        29.92F
ALAMOGORDO     MOSUNNY   91  52  25 S5        29.95F
T OR C         CLOUDY    90  52  27 SW7       29.97F

$$
NMZ519>523-050000-
CENTRAL VALLEYS/CENTRAL HIGHLANDS

CITY           SKY/WX    TMP DP  RH WIND       PRES   REMARKS
ALBUQUERQUE    CLOUDY    78  59  51 SW8       30.06F
DOUBLE EAGLE   CLOUDY    70  55  60 SW12      30.11R
MORIARTY ARPT  LGT RAIN  71  58  65 N3        30.14F
CLINES CORNERS NOT AVBL
BELEN          FAIR      85  50  29 N14G22    30.06R
SOCORRO        FAIR      85  50  29 W18       30.00S

$$
NMZ524>526-539-540-050000-
SOUTHCENTRAL MOUNTAINS

CITY           SKY/WX    TMP DP  RH WIND       PRES   REMARKS
RUIDOSO        PTSUNNY   72  55  56 SE6       30.21F

$$
NMZ527>531-050000-
NORTHEAST HIGHLANDS/NORTHEAST PLAINS

CITY           SKY/WX    TMP DP  RH WIND       PRES   REMARKS
LAS VEGAS      PTSUNNY   74  56  53 SW20G26   30.17S
RATON          CLOUDY    81  53  37 S12       30.10F
CLAYTON        MOSUNNY   90  56  31 S18G30    30.00F

$$
NMZ532>537-050000-
EASTCENTRAL PLAINS

CITY           SKY/WX    TMP DP  RH WIND       PRES   REMARKS
TUCUMCARI      PTSUNNY   94  49  21 SW14G20   29.95F
CANNON AFB     MOSUNNY   88  58  36 S13       30.01F
CLOVIS AIRPORT MOSUNNY   88  57  35 S15G21      N/A

$$
NMZ028-029-538-050000-
SOUTHEAST PLAINS

CITY           SKY/WX    TMP DP  RH WIND       PRES   REMARKS
ROSWELL        PTSUNNY   90  56  31 SE9       29.96F
ARTESIA        MOSUNNY   90  55  31 E9G18     29.96F
CARLSBAD       MOSUNNY   94  57  28 E12       29.93F
HOBBS          MOSUNNY   88  57  35 SE12G17   29.99F


$$



USA.gov is the U.S. government's official web portal to all federal, state and local government web resources and services.